PSLV DEB, 27089

Orbit data source: Space-Track

PSLV DEB, 27089 is space debris in SSO originally from a launch on Mon, 22 Oct 2001 UTC launched from the Sirharikota (SRI). Debris objects in space refer to the collection of defunct objects orbiting the Earth. Examples of debris include non-operational satellites, rocket bodies, and fragments generated from explosions, collisions, or faulty payload assembly.

Loading next visibility...
Identifier
27089, 2001-049AH
Orbit
SSO
Last TLE update
11 hours ago
Origin
Manufacturer
VSSC/LPSC
Mission
Spacecraft
Bus & Motor
Unknown
Mass
Unknown
Launch date (UTC)
2001-10-22 (24 years ago)
Launch vehicle
Unknown
Launch site
Sirharikota (SRI)
Object type
Payload
Rocket body
Debris
Shape & HBR
Unknown
Radar Cross Section
Medium (>0.1 m² and <1 m²)

Expand to show TLE details & history

TLE from 11 hours ago
0 PSLV DEB
1 27089U 01049AH  25186.57312176  .00001765  00000-0  15167-3 0  9996
2 27089  98.1254 189.6060 0054076 147.6740 331.1285 14.97741398277471
Epoch: 2025-07-05T13:45Z
TLE epoch observation values (Epoch: 2025-07-05T13:45:17.72Z)
Latitude
60.55616°
Longitude
-105.95826°
Altitude
551.325 km
Speed
7.61 km/s
True Right ascension
01h 36m 41s
True Declination
60° 24' 15"
Sunlit
Object was in daylight at epoch
Visualization orbit readout
Latitude
-17.69535°
Longitude
62.52969°
Altitude
616.95 km
Speed
7.53 km/s
Apparent Right ascension
14h 12m 38s
Apparent Declination
-72° 36' 29"
Sunlit
Object is in daylight
Visualization observer readout
Local Sidereal Time
12:18:48
Azimuth
171.012° S
Elevation
-24.254°
Doppler factor
1
Orbital elements
Apogee altitude
608.482 km
Perigee altitude
533.326 km
Semi-major axis
6,949.041 km
Eccentricity
0.00541
Inclination
98.1254°
RAAN
189.606°
Arg. of periapsis
147.674°
True anomaly
Unknown
Mean anomaly
331.1285°
Eccentric anomaly
Unknown
Mean motion
3.74676 °/min
Orbital period
96.08 mins
BSTAR
0.00015167
Loading maneuver chart data...
Loading SW <> Apogee altitude chart data...
Loading historical data...
Loading historical data...
Loading historical data...
Loading historical data...
Loading historical data...
Loading historical data...
Loading historical data...

PSLV DEB Visibility forecast

Observer location: undefined°, undefined°

Span
Click to sort rows by Start time (UTC) header in descending order
Start Az.
Max El. time (UTC)
Max El. Az.
Max El.
End time (UTC)
End Az.
7 mins2025-07-06 00:34:18.104Z186.639° SSW2025-07-06 00:37:18.104Z239.176° WSW36.267°2025-07-06 00:41:18.104Z334.168° NNW
5 mins2025-07-06 13:51:18.104Z334.723° NNW2025-07-06 13:53:18.104Z290.376° WNW24.176°2025-07-06 13:56:18.104Z234.477° WSW
|